Time,TemperatureF,DewpointF,PressureIn,WindDirection,WindDirectionDegrees,WindSpeedMPH,WindSpeedGustMPH,Humidity,HourlyPrecipIn,Conditions,Clouds,dailyrainin,SoftwareType,DateUTC
2013-02-05 00:01:00,48.0,37.0,29.99,SSE,152,0.0,-999.0,65,-99.99,,,0.00,,2013-02-05 06:01:00,
2013-02-05 00:11:00,48.0,37.0,29.99,SSE,152,0.0,-999.0,65,-99.99,,,0.00,,2013-02-05 06:11:00,
2013-02-05 00:21:00,48.0,36.0,29.98,SSE,154,1.0,-999.0,64,-99.99,,,0.00,,2013-02-05 06:21:00,
2013-02-05 00:32:00,49.0,37.0,29.98,South,180,1.0,-999.0,62,-99.99,,,0.00,,2013-02-05 06:32:00,
2013-02-05 00:42:00,49.0,37.0,29.98,South,180,1.0,-999.0,62,-99.99,,,0.00,,2013-02-05 06:42:00,
2013-02-05 00:51:00,49.0,36.0,29.98,South,179,0.0,-999.0,61,-99.99,,,0.00,,2013-02-05 06:51:00,
2013-02-05 01:01:00,49.0,38.0,29.98,South,176,0.0,-999.0,66,-99.99,,,0.00,,2013-02-05 07:01:00,
2013-02-05 01:11:00,49.0,38.0,29.98,South,176,0.0,-999.0,66,-99.99,,,0.00,,2013-02-05 07:11:00,
2013-02-05 01:22:00,49.0,37.0,29.98,South,176,0.0,-999.0,64,-99.99,,,0.00,,2013-02-05 07:22:00,
2013-02-05 01:31:00,48.0,36.0,29.98,South,176,0.0,-999.0,64,-99.99,,,0.00,,2013-02-05 07:31:00,
2013-02-05 01:41:00,48.0,36.0,29.98,South,176,0.0,-999.0,64,-99.99,,,0.00,,2013-02-05 07:41:00,
2013-02-05 01:52:00,49.0,37.0,29.99,NW,316,1.0,-999.0,64,-99.99,,,0.00,,2013-02-05 07:52:00,
2013-02-05 02:01:00,49.0,37.0,29.99,NW,316,1.0,-999.0,63,-99.99,,,0.00,,2013-02-05 08:01:00,
2013-02-05 02:11:00,49.0,37.0,29.99,NW,316,1.0,-999.0,63,-99.99,,,0.00,,2013-02-05 08:11:00,
2013-02-05 02:21:00,49.0,37.0,29.99,NW,316,1.0,-999.0,63,-99.99,,,0.00,,2013-02-05 08:21:00,
2013-02-05 02:31:00,48.0,37.0,29.98,NW,316,0.0,-999.0,66,-99.99,,,0.00,,2013-02-05 08:31:00,
2013-02-05 02:41:00,48.0,37.0,29.98,NW,316,0.0,-999.0,66,-99.99,,,0.00,,2013-02-05 08:41:00,
2013-02-05 02:52:00,48.0,38.0,29.99,NW,316,0.0,-999.0,67,-99.99,,,0.00,,2013-02-05 08:52:00,
2013-02-05 03:02:00,48.0,38.0,29.99,NW,316,0.0,-999.0,68,-99.99,,,0.00,,2013-02-05 09:02:00,
2013-02-05 03:11:00,48.0,40.0,29.99,NW,316,0.0,-999.0,74,-99.99,,,0.00,,2013-02-05 09:11:00,
2013-02-05 03:21:00,48.0,40.0,29.99,NW,316,0.0,-999.0,74,-99.99,,,0.00,,2013-02-05 09:21:00,
2013-02-05 03:32:00,47.0,41.0,29.99,NW,316,0.0,-999.0,78,-99.99,,,0.00,,2013-02-05 09:32:00,
2013-02-05 03:42:00,47.0,41.0,29.99,NW,316,0.0,-999.0,78,-99.99,,,0.00,,2013-02-05 09:42:00,
2013-02-05 03:52:00,46.0,42.0,29.99,NW,316,0.0,-999.0,85,-99.99,,,0.00,,2013-02-05 09:52:00,
2013-02-05 04:01:00,46.0,42.0,29.99,NW,316,0.0,-999.0,87,-99.99,,,0.00,,2013-02-05 10:01:00,
2013-02-05 04:11:00,45.0,42.0,29.99,NW,316,1.0,-999.0,90,-99.99,,,0.00,,2013-02-05 10:11:00,
2013-02-05 04:21:00,45.0,42.0,29.99,NW,316,1.0,-999.0,90,-99.99,,,0.00,,2013-02-05 10:21:00,
2013-02-05 04:32:00,45.0,42.0,29.98,NW,316,0.0,-999.0,89,-99.99,,,0.00,,2013-02-05 10:32:00,
2013-02-05 04:42:00,45.0,42.0,29.98,NW,316,0.0,-999.0,89,-99.99,,,0.00,,2013-02-05 10:42:00,
2013-02-05 04:52:00,45.0,42.0,29.99,NW,316,0.0,-999.0,89,-99.99,,,0.00,,2013-02-05 10:52:00,
2013-02-05 05:01:00,45.0,42.0,29.99,NW,316,0.0,-999.0,90,-99.99,,,0.00,,2013-02-05 11:01:00,
2013-02-05 05:11:00,45.0,42.0,29.99,NW,316,0.0,-999.0,90,-99.99,,,0.00,,2013-02-05 11:11:00,
2013-02-05 05:22:00,45.0,42.0,30.00,SSW,198,1.0,-999.0,90,-99.99,,,0.00,,2013-02-05 11:22:00,
2013-02-05 05:32:00,46.0,42.0,30.00,WSW,248,2.0,-999.0,87,-99.99,,,0.00,,2013-02-05 11:32:00,
2013-02-05 05:42:00,46.0,42.0,30.00,WSW,248,2.0,-999.0,87,-99.99,,,0.00,,2013-02-05 11:42:00,
2013-02-05 05:52:00,46.0,43.0,30.00,WSW,252,0.0,-999.0,88,-99.99,,,0.00,,2013-02-05 11:52:00,
2013-02-05 06:01:00,46.0,43.0,30.01,WSW,252,0.0,-999.0,90,-99.99,,,0.00,,2013-02-05 12:01:00,
2013-02-05 06:12:00,46.0,43.0,30.01,WSW,252,0.0,-999.0,90,-99.99,,,0.00,,2013-02-05 12:12:00,
2013-02-05 06:21:00,46.0,44.0,30.01,WSW,252,0.0,-999.0,91,-99.99,,,0.00,,2013-02-05 12:21:00,
2013-02-05 06:32:00,46.0,44.0,30.02,WSW,252,0.0,-999.0,91,-99.99,,,0.00,,2013-02-05 12:32:00,
2013-02-05 06:42:00,46.0,44.0,30.02,WSW,252,0.0,-999.0,91,-99.99,,,0.00,,2013-02-05 12:42:00,
2013-02-05 06:52:00,46.0,43.0,30.03,WSW,252,0.0,-999.0,89,-99.99,,,0.00,,2013-02-05 12:52:00,
2013-02-05 07:01:00,46.0,43.0,30.03,WSW,252,0.0,-999.0,90,-99.99,,,0.00,,2013-02-05 13:01:00,
2013-02-05 07:12:00,46.0,43.0,30.03,WSW,252,0.0,-999.0,90,-99.99,,,0.00,,2013-02-05 13:12:00,
2013-02-05 07:21:00,46.0,44.0,30.03,WSW,252,0.0,-999.0,91,-99.99,,,0.00,,2013-02-05 13:21:00,
2013-02-05 07:32:00,46.0,43.0,30.03,WSW,251,0.0,-999.0,88,-99.99,,,0.00,,2013-02-05 13:32:00,
2013-02-05 07:42:00,46.0,43.0,30.03,WSW,251,0.0,-999.0,88,-99.99,,,0.00,,2013-02-05 13:42:00,
2013-02-05 07:51:00,46.0,42.0,30.04,WSW,251,0.0,-999.0,86,-99.99,,,0.00,,2013-02-05 13:51:00,
2013-02-05 08:01:00,47.0,43.0,30.04,WSW,251,0.0,-999.0,87,-99.99,,,0.00,,2013-02-05 14:01:00,
2013-02-05 08:12:00,47.0,43.0,30.04,WSW,251,0.0,-999.0,87,-99.99,,,0.00,,2013-02-05 14:12:00,
2013-02-05 08:21:00,47.0,43.0,30.05,WSW,251,0.0,-999.0,86,-99.99,,,0.00,,2013-02-05 14:21:00,
2013-02-05 08:31:00,48.0,44.0,30.05,WSW,251,0.0,-999.0,85,-99.99,,,0.00,,2013-02-05 14:31:00,
2013-02-05 08:42:00,48.0,44.0,30.05,WSW,251,0.0,-999.0,85,-99.99,,,0.00,,2013-02-05 14:42:00,
2013-02-05 08:52:00,48.0,44.0,30.05,WSW,251,0.0,-999.0,85,-99.99,,,0.00,,2013-02-05 14:52:00,
2013-02-05 09:02:00,49.0,44.0,30.06,WSW,251,0.0,-999.0,83,-99.99,,,0.00,,2013-02-05 15:02:00,
2013-02-05 09:11:00,49.0,44.0,30.06,WSW,251,0.0,-999.0,83,-99.99,,,0.00,,2013-02-05 15:11:00,
2013-02-05 09:21:00,50.0,44.0,30.06,WSW,251,0.0,-999.0,81,-99.99,,,0.00,,2013-02-05 15:21:00,
2013-02-05 09:32:00,50.0,43.0,30.06,SSW,202,1.0,-999.0,78,-99.99,,,0.00,,2013-02-05 15:32:00,
2013-02-05 09:41:00,50.0,43.0,30.06,SSW,202,1.0,-999.0,78,-99.99,,,0.00,,2013-02-05 15:41:00,
2013-02-05 09:52:00,51.0,43.0,30.06,SSW,205,1.0,-999.0,75,-99.99,,,0.00,,2013-02-05 15:52:00,
2013-02-05 10:01:00,52.0,44.0,30.06,SW,216,1.0,-999.0,75,-99.99,,,0.00,,2013-02-05 16:01:00,
2013-02-05 10:11:00,52.0,44.0,30.06,SW,216,1.0,-999.0,75,-99.99,,,0.00,,2013-02-05 16:11:00,
2013-02-05 10:22:00,53.0,45.0,30.06,WSW,243,2.0,-999.0,75,-99.99,,,0.00,,2013-02-05 16:22:00,
2013-02-05 10:32:00,54.0,46.0,30.06,WSW,252,1.0,-999.0,74,-99.99,,,0.00,,2013-02-05 16:32:00,
2013-02-05 10:42:00,54.0,46.0,30.06,WSW,252,1.0,-999.0,74,-99.99,,,0.00,,2013-02-05 16:42:00,
2013-02-05 10:52:00,54.0,46.0,30.06,WSW,241,2.0,-999.0,74,-99.99,,,0.00,,2013-02-05 16:52:00,
2013-02-05 11:01:00,54.0,46.0,30.06,SW,226,2.0,-999.0,74,-99.99,,,0.00,,2013-02-05 17:01:00,
2013-02-05 11:11:00,54.0,46.0,30.06,SW,226,2.0,-999.0,74,-99.99,,,0.00,,2013-02-05 17:11:00,
2013-02-05 11:21:00,55.0,46.0,30.06,NNW,337,1.0,-999.0,72,-99.99,,,0.00,,2013-02-05 17:21:00,
2013-02-05 11:32:00,56.0,47.0,30.04,West,272,4.0,-999.0,73,-99.99,,,0.00,,2013-02-05 17:32:00,
2013-02-05 11:42:00,56.0,47.0,30.04,West,272,4.0,-999.0,73,-99.99,,,0.00,,2013-02-05 17:42:00,
2013-02-05 11:52:00,56.0,47.0,30.03,West,268,3.0,-999.0,71,-99.99,,,0.00,,2013-02-05 17:52:00,
2013-02-05 12:02:00,58.0,48.0,30.02,WSW,238,3.0,-999.0,70,-99.99,,,0.00,,2013-02-05 18:02:00,
2013-02-05 12:11:00,58.0,48.0,30.02,WSW,238,3.0,-999.0,70,-99.99,,,0.00,,2013-02-05 18:11:00,
2013-02-05 12:22:00,58.0,48.0,30.02,South,177,4.0,-999.0,69,-99.99,,,0.00,,2013-02-05 18:22:00,
2013-02-05 12:32:00,58.0,47.0,30.01,SW,225,3.0,-999.0,67,-99.99,,,0.00,,2013-02-05 18:32:00,
2013-02-05 12:42:00,58.0,47.0,30.01,SW,225,3.0,-999.0,67,-99.99,,,0.00,,2013-02-05 18:42:00,
2013-02-05 12:52:00,59.0,47.0,30.01,South,180,3.0,-999.0,65,-99.99,,,0.00,,2013-02-05 18:52:00,
2013-02-05 13:02:00,60.0,47.0,30.00,SSW,198,1.0,-999.0,63,-99.99,,,0.00,,2013-02-05 19:02:00,
2013-02-05 13:11:00,60.0,47.0,30.00,SSW,198,1.0,-999.0,63,-99.99,,,0.00,,2013-02-05 19:11:00,
2013-02-05 13:21:00,61.0,47.0,29.98,South,190,3.0,-999.0,61,-99.99,,,0.00,,2013-02-05 19:21:00,
2013-02-05 13:32:00,62.0,47.0,29.98,SSW,196,3.0,-999.0,59,-99.99,,,0.00,,2013-02-05 19:32:00,
2013-02-05 13:42:00,62.0,47.0,29.98,SSW,196,3.0,-999.0,59,-99.99,,,0.00,,2013-02-05 19:42:00,
2013-02-05 13:52:00,62.0,47.0,29.98,West,270,4.0,-999.0,59,-99.99,,,0.00,,2013-02-05 19:52:00,
2013-02-05 14:01:00,63.0,48.0,29.97,SSW,193,3.0,-999.0,58,-99.99,,,0.00,,2013-02-05 20:01:00,
2013-02-05 14:11:00,63.0,48.0,29.97,SSW,193,3.0,-999.0,58,-99.99,,,0.00,,2013-02-05 20:11:00,
2013-02-05 14:21:00,63.0,47.0,29.96,SW,217,3.0,-999.0,56,-99.99,,,0.00,,2013-02-05 20:21:00,
2013-02-05 14:32:00,64.0,47.0,29.96,SSE,160,3.0,-999.0,53,-99.99,,,0.00,,2013-02-05 20:32:00,
2013-02-05 14:42:00,64.0,47.0,29.96,SSE,160,3.0,-999.0,53,-99.99,,,0.00,,2013-02-05 20:42:00,
2013-02-05 14:52:00,64.0,47.0,29.95,SSE,168,2.0,-999.0,54,-99.99,,,0.00,,2013-02-05 20:52:00,
2013-02-05 15:02:00,64.0,46.0,29.95,SSW,213,3.0,-999.0,52,-99.99,,,0.00,,2013-02-05 21:02:00,
2013-02-05 15:11:00,64.0,46.0,29.95,SSW,213,3.0,-999.0,52,-99.99,,,0.00,,2013-02-05 21:11:00,
2013-02-05 15:22:00,64.0,45.0,29.95,SSW,193,3.0,-999.0,50,-99.99,,,0.00,,2013-02-05 21:22:00,
2013-02-05 15:32:00,64.0,44.0,29.94,WSW,254,4.0,-999.0,49,-99.99,,,0.00,,2013-02-05 21:32:00,
2013-02-05 15:42:00,64.0,44.0,29.94,WSW,254,4.0,-999.0,49,-99.99,,,0.00,,2013-02-05 21:42:00,
2013-02-05 15:52:00,64.0,45.0,29.94,SSW,205,3.0,-999.0,50,-99.99,,,0.00,,2013-02-05 21:52:00,
2013-02-05 16:01:00,64.0,43.0,29.95,WSW,238,4.0,-999.0,47,-99.99,,,0.00,,2013-02-05 22:01:00,
2013-02-05 16:11:00,64.0,43.0,29.95,WSW,238,4.0,-999.0,47,-99.99,,,0.00,,2013-02-05 22:11:00,
2013-02-05 16:21:00,64.0,44.0,29.95,SW,225,2.0,-999.0,49,-99.99,,,0.00,,2013-02-05 22:21:00,
2013-02-05 16:32:00,64.0,44.0,29.96,South,185,2.0,-999.0,49,-99.99,,,0.00,,2013-02-05 22:32:00,
2013-02-05 16:42:00,64.0,44.0,29.96,South,185,2.0,-999.0,49,-99.99,,,0.00,,2013-02-05 22:42:00,
2013-02-05 16:52:00,64.0,45.0,29.95,SW,230,1.0,-999.0,50,-99.99,,,0.00,,2013-02-05 22:52:00,
2013-02-05 17:02:00,62.0,46.0,29.96,SSW,193,0.0,-999.0,55,-99.99,,,0.00,,2013-02-05 23:02:00,
2013-02-05 17:11:00,62.0,46.0,29.96,SSW,193,0.0,-999.0,55,-99.99,,,0.00,,2013-02-05 23:11:00,
2013-02-05 17:21:00,61.0,49.0,29.96,South,170,1.0,-999.0,64,-99.99,,,0.00,,2013-02-05 23:21:00,
2013-02-05 17:32:00,59.0,49.0,29.96,South,185,0.0,-999.0,69,-99.99,,,0.00,,2013-02-05 23:32:00,
2013-02-05 17:42:00,59.0,49.0,29.96,South,185,0.0,-999.0,69,-99.99,,,0.00,,2013-02-05 23:42:00,
2013-02-05 17:52:00,58.0,49.0,29.98,South,191,1.0,-999.0,71,-99.99,,,0.00,,2013-02-05 23:52:00,
2013-02-05 18:02:00,57.0,49.0,29.98,South,187,0.0,-999.0,75,-99.99,,,0.00,,2013-02-06 00:02:00,
2013-02-05 18:11:00,57.0,49.0,29.98,South,187,0.0,-999.0,75,-99.99,,,0.00,,2013-02-06 00:11:00,
2013-02-05 18:22:00,55.0,48.0,29.99,South,187,0.0,-999.0,77,-99.99,,,0.00,,2013-02-06 00:22:00,
2013-02-05 18:32:00,54.0,48.0,30.00,South,187,0.0,-999.0,80,-99.99,,,0.00,,2013-02-06 00:32:00,
2013-02-05 18:42:00,54.0,48.0,30.00,South,187,0.0,-999.0,80,-99.99,,,0.00,,2013-02-06 00:42:00,
2013-02-05 18:52:00,52.0,47.0,30.01,South,172,0.0,-999.0,84,-99.99,,,0.00,,2013-02-06 00:52:00,
2013-02-05 19:02:00,51.0,47.0,30.01,South,172,0.0,-999.0,86,-99.99,,,0.00,,2013-02-06 01:02:00,
2013-02-05 19:11:00,51.0,47.0,30.01,South,172,0.0,-999.0,86,-99.99,,,0.00,,2013-02-06 01:11:00,
2013-02-05 19:22:00,51.0,48.0,30.02,South,172,0.0,-999.0,88,-99.99,,,0.00,,2013-02-06 01:22:00,
2013-02-05 19:32:00,50.0,47.0,30.02,South,172,0.0,-999.0,90,-99.99,,,0.00,,2013-02-06 01:32:00,
2013-02-05 19:42:00,50.0,47.0,30.02,South,172,0.0,-999.0,90,-99.99,,,0.00,,2013-02-06 01:42:00,
2013-02-05 19:53:00,50.0,47.0,30.03,South,172,0.0,-999.0,91,-99.99,,,0.00,,2013-02-06 01:53:00,
2013-02-05 20:01:00,50.0,47.0,30.03,South,172,0.0,-999.0,90,-99.99,,,0.00,,2013-02-06 02:01:00,
2013-02-05 20:11:00,50.0,47.0,30.03,South,172,0.0,-999.0,90,-99.99,,,0.00,,2013-02-06 02:11:00,
2013-02-05 20:22:00,50.0,47.0,30.04,South,172,0.0,-999.0,90,-99.99,,,0.00,,2013-02-06 02:22:00,
2013-02-05 20:32:00,50.0,47.0,30.04,South,172,0.0,-999.0,90,-99.99,,,0.00,,2013-02-06 02:32:00,
2013-02-05 20:42:00,50.0,47.0,30.04,South,172,0.0,-999.0,90,-99.99,,,0.00,,2013-02-06 02:42:00,
2013-02-05 20:52:00,49.0,46.0,30.05,South,172,0.0,-999.0,90,-99.99,,,0.00,,2013-02-06 02:52:00,
2013-02-05 21:02:00,48.0,45.0,30.06,South,172,0.0,-999.0,91,-99.99,,,0.00,,2013-02-06 03:02:00,
2013-02-05 21:12:00,48.0,45.0,30.06,South,172,0.0,-999.0,91,-99.99,,,0.00,,2013-02-06 03:12:00,
2013-02-05 21:22:00,47.0,45.0,30.06,South,172,0.0,-999.0,92,-99.99,,,0.00,,2013-02-06 03:22:00,
2013-02-05 21:32:00,47.0,45.0,30.06,South,172,0.0,-999.0,93,-99.99,,,0.00,,2013-02-06 03:32:00,
2013-02-05 21:42:00,47.0,45.0,30.06,South,172,0.0,-999.0,93,-99.99,,,0.00,,2013-02-06 03:42:00,
2013-02-05 21:53:00,47.0,45.0,30.07,South,172,0.0,-999.0,93,-99.99,,,0.00,,2013-02-06 03:53:00,
2013-02-05 22:02:00,46.0,44.0,30.07,South,172,0.0,-999.0,93,-99.99,,,0.00,,2013-02-06 04:02:00,
2013-02-05 22:11:00,46.0,44.0,30.07,South,172,0.0,-999.0,93,-99.99,,,0.00,,2013-02-06 04:11:00,
2013-02-05 22:21:00,46.0,45.0,30.07,South,172,0.0,-999.0,95,-99.99,,,0.00,,2013-02-06 04:21:00,
2013-02-05 22:31:00,45.0,44.0,30.07,South,172,0.0,-999.0,95,-99.99,,,0.00,,2013-02-06 04:31:00,
2013-02-05 22:42:00,45.0,44.0,30.07,South,172,0.0,-999.0,95,-99.99,,,0.00,,2013-02-06 04:42:00,
2013-02-05 22:52:00,45.0,44.0,30.08,South,172,0.0,-999.0,95,-99.99,,,0.00,,2013-02-06 04:52:00,
2013-02-05 23:02:00,45.0,44.0,30.08,South,172,0.0,-999.0,96,-99.99,,,0.00,,2013-02-06 05:02:00,
2013-02-05 23:12:00,45.0,44.0,30.08,South,172,0.0,-999.0,96,-99.99,,,0.00,,2013-02-06 05:12:00,
2013-02-05 23:22:00,45.0,44.0,30.08,South,172,0.0,-999.0,95,-99.99,,,0.00,,2013-02-06 05:22:00,
2013-02-05 23:32:00,44.0,43.0,30.09,South,172,0.0,-999.0,96,-99.99,,,0.00,,2013-02-06 05:32:00,
2013-02-05 23:41:00,44.0,43.0,30.09,South,172,0.0,-999.0,96,-99.99,,,0.00,,2013-02-06 05:41:00,
2013-02-05 23:53:00,44.0,43.0,30.09,South,172,0.0,-999.0,95,-99.99,,,0.00,,2013-02-06 05:53:00,